Monument Pass, CO

7:41 PM MDT on March 29, 2017 (GMT -0600)
Monument Pass

Weather History for KMNH - October, 2013

Change the Weather History Date:

Monday, October 28, 2013

  Actual Average Record
Temperature  
Mean Temperature 36 °F -  
Max Temperature 42 °F - 72 °F (2016)
Min Temperature 30 °F - 17 °F (2011)
Degree Days  
Heating Degree Days 29    
Month to date heating degree days  
Cooling Degree Days 0    
Month to date cooling degree days  
Moisture  
Dew Point 28 °F    
Average Humidity 83    
Maximum Humidity 100    
Minimum Humidity 36    
Precipitation  
Precipitation 0.00 in - 0.00 in (2017)
Sea Level Pressure  
Sea Level Pressure 29.98 in    
Wind  
Wind Speed 7 mph (NNW)    
Max Wind Speed 16 mph    
Max Gust Speed -    
Visibility 5 miles    
Events Fog , Snow    
T = Trace of Precipitation, MM = Missing Value Source: NWS Daily Summary

Daily Weather History Graph

Daily Weather History Graph

Search for Another Location

Airport or City:

Trip Planner

Search our weather history database for the weather conditions in past years. The results will help you decide how hot, cold, wet, or windy it might be!

Date:

Astronomy

Oct. 28, 2013 Rise Set
Actual Time 7:22 AM MDT 6:01 PM MDT
Civil Twilight 6:54 AM MDT 6:29 PM MDT
Nautical Twilight 6:23 AM MDT 7:00 PM MDT
Astronomical Twilight 5:52 AM MDT 7:31 PM MDT
Moon 1:19 AM MDT (10/28) 2:43 PM MDT (10/28)
Length of Visible Light 11h 34m
Length of Day
10h 39m
Waning Crescent, 33% of the Moon is Illuminated
Oct 28
Waning Crescent
Nov 3
New
Nov 9
First Quarter
Nov 17
Full
Nov 25
Last Quarter

Hourly Weather History & Observations

Time (MDT) Temp. Windchill Dew Point Humidity Pressure Visibility Wind Dir Wind Speed Gust Speed Precip Events Conditions
12:12 AM 37.4 °F 30.8 °F 19.4 °F 48% 29.94 in 10.0 mi SSW 9.2 mph - N/A   Clear
12:32 AM 37.4 °F 31.4 °F 19.4 °F 48% 29.94 in 10.0 mi SSW 8.1 mph - N/A   Clear
12:52 AM 39.2 °F 33.0 °F 19.4 °F 45% 29.94 in 10.0 mi SSW 9.2 mph - N/A   Clear
1:11 AM 41.0 °F 36.4 °F 17.6 °F 39% 29.94 in 10.0 mi SW 6.9 mph - N/A   Clear
1:32 AM 41.0 °F 35.2 °F 17.6 °F 39% 29.94 in 10.0 mi SW 9.2 mph - N/A   Clear
1:52 AM 42.8 °F 38.0 °F 17.6 °F 36% 29.95 in 10.0 mi WSW 8.1 mph - N/A   Clear
2:12 AM 41.0 °F 36.4 °F 19.4 °F 42% 29.95 in 10.0 mi WSW 6.9 mph - N/A   Clear
2:31 AM 35.6 °F 32.8 °F 19.4 °F 52% 29.95 in 10.0 mi WSW 3.5 mph - N/A   Clear
2:52 AM 35.6 °F 32.8 °F 21.2 °F 56% 29.94 in 10.0 mi WNW 3.5 mph - N/A   Clear
3:12 AM 41.0 °F 37.1 °F 19.4 °F 42% 29.94 in 10.0 mi WNW 5.8 mph - N/A   Clear
3:31 AM 39.2 °F - 19.4 °F 45% 29.94 in 10.0 mi Calm Calm - N/A   Clear
3:52 AM 37.4 °F 33.8 °F 19.4 °F 48% 29.94 in 10.0 mi West 4.6 mph - N/A   Clear
4:12 AM 41.0 °F 39.0 °F 19.4 °F 42% 29.94 in 10.0 mi WSW 3.5 mph - N/A   Clear
4:31 AM 37.4 °F 31.4 °F 21.2 °F 52% 29.94 in 10.0 mi WSW 8.1 mph - N/A   Clear
4:52 AM 37.4 °F 31.4 °F 21.2 °F 52% 29.95 in 10.0 mi West 8.1 mph - N/A   Clear
5:12 AM 39.2 °F 33.6 °F 21.2 °F 49% 29.95 in 10.0 mi West 8.1 mph - N/A   Clear
5:32 AM 37.4 °F 31.4 °F 21.2 °F 52% 29.95 in 10.0 mi WNW 8.1 mph - N/A   Clear
5:52 AM 37.4 °F 31.4 °F 21.2 °F 52% 29.95 in 10.0 mi NW 8.1 mph - N/A   Clear
6:12 AM 37.4 °F 31.4 °F 23.0 °F 56% 29.97 in 10.0 mi NW 8.1 mph - N/A   Clear
6:32 AM 37.4 °F 31.4 °F 23.0 °F 56% 29.97 in 10.0 mi WNW 8.1 mph - N/A   Clear
6:52 AM 37.4 °F 31.4 °F 23.0 °F 56% 29.97 in 10.0 mi WNW 8.1 mph - N/A   Scattered Clouds
7:12 AM 35.6 °F 28.6 °F 23.0 °F 60% 29.99 in 10.0 mi WNW 9.2 mph - N/A   Scattered Clouds
7:32 AM 33.8 °F 25.8 °F 24.8 °F 70% 29.99 in 10.0 mi NNW 10.4 mph - N/A   Clear
7:52 AM 32.0 °F 22.1 °F 28.4 °F 87% 30.01 in 10.0 mi NW 13.8 mph - N/A   Clear
8:12 AM 32.0 °F 23.0 °F 28.4 °F 87% 30.03 in 10.0 mi NNW 11.5 mph - N/A   Clear
8:32 AM 32.0 °F 23.6 °F 30.2 °F 93% 30.03 in 10.0 mi NNW 10.4 mph - N/A   Mostly Cloudy
8:51 AM 32.0 °F 21.2 °F 30.2 °F 93% 30.03 in 4.0 mi NW 16.1 mph - N/A   Overcast
9:12 AM 32.0 °F 23.0 °F 30.2 °F 93% 30.04 in 1.2 mi NNW 11.5 mph - N/A   Overcast
9:32 AM 32.0 °F 22.5 °F 30.2 °F 93% 30.05 in 0.2 mi NNW 12.7 mph - N/A Fog Light Freezing Fog
9:52 AM 32.0 °F 24.2 °F 32.0 °F 100% 30.03 in 0.2 mi North 9.2 mph - N/A Fog Light Freezing Fog
10:12 AM 32.0 °F 24.8 °F 30.2 °F 93% 30.03 in 0.2 mi North 8.1 mph - N/A Fog Light Freezing Fog
10:32 AM 32.0 °F 24.2 °F 32.0 °F 100% 30.03 in 0.2 mi North 9.2 mph - N/A Fog Light Freezing Fog
10:52 AM 32.0 °F 23.6 °F 32.0 °F 100% 30.02 in 0.2 mi NNW 10.4 mph - N/A Snow Light Snow
11:12 AM 32.0 °F 23.6 °F 32.0 °F 100% 30.02 in 0.2 mi NNW 10.4 mph - N/A Fog Light Freezing Fog
11:32 AM 32.0 °F 24.8 °F 32.0 °F 100% 30.02 in 0.2 mi NNW 8.1 mph - N/A Fog Light Freezing Fog
11:52 AM 32.0 °F 28.7 °F 32.0 °F 100% 30.01 in 1.5 mi NW 3.5 mph - N/A   Overcast
12:12 PM 32.0 °F 25.6 °F 32.0 °F 100% 30.00 in 1.8 mi North 6.9 mph - N/A   Overcast
12:32 PM 32.0 °F 28.7 °F 32.0 °F 100% 29.99 in 7.0 mi NW 3.5 mph - N/A   Overcast
12:52 PM 32.0 °F 28.7 °F 32.0 °F 100% 29.98 in 10.0 mi NNE 3.5 mph - N/A   Overcast
1:12 PM 32.0 °F 26.4 °F 32.0 °F 100% 29.97 in 10.0 mi NNE 5.8 mph - N/A   Overcast
1:32 PM 32.0 °F 26.4 °F 32.0 °F 100% 29.97 in 10.0 mi North 5.8 mph - N/A   Overcast
1:52 PM 32.0 °F 24.8 °F 32.0 °F 100% 29.97 in 10.0 mi North 8.1 mph - N/A   Overcast
2:12 PM 32.0 °F 24.8 °F 32.0 °F 100% 29.96 in 10.0 mi North 8.1 mph - N/A   Overcast
2:32 PM 32.0 °F 24.8 °F 32.0 °F 100% 29.96 in 10.0 mi North 8.1 mph - N/A   Overcast
2:51 PM 32.0 °F 26.4 °F 32.0 °F 100% 29.97 in 7.0 mi North 5.8 mph - N/A   Overcast
3:12 PM 32.0 °F 27.5 °F 32.0 °F 100% 29.97 in 1.8 mi NNE 4.6 mph - N/A   Overcast
3:32 PM 32.0 °F 27.5 °F 32.0 °F 100% 29.97 in 0.2 mi North 4.6 mph - N/A Fog Light Freezing Fog
3:52 PM 32.0 °F 26.4 °F 32.0 °F 100% 29.97 in 0.2 mi NE 5.8 mph - N/A Snow Light Snow
4:12 PM 32.0 °F - 30.2 °F 93% 29.97 in 0.2 mi Calm Calm - N/A Snow Light Snow
4:32 PM 32.0 °F 26.4 °F 30.2 °F 93% 29.97 in 0.2 mi ENE 5.8 mph - N/A Fog Light Freezing Fog
4:52 PM 30.2 °F 24.3 °F 30.2 °F 100% 29.98 in 0.2 mi ENE 5.8 mph - N/A Snow Light Snow
5:12 PM 30.2 °F 25.4 °F 30.2 °F 100% 29.97 in 0.2 mi ENE 4.6 mph - N/A Snow Light Snow
5:32 PM 30.2 °F 25.4 °F 30.2 °F 100% 29.97 in 0.2 mi East 4.6 mph - N/A Fog Light Freezing Fog
5:52 PM 30.2 °F 24.3 °F 30.2 °F 100% 29.98 in 0.2 mi East 5.8 mph - N/A Fog Light Freezing Fog
6:12 PM 30.2 °F 24.3 °F 30.2 °F 100% 29.99 in 0.2 mi East 5.8 mph - N/A Fog Light Freezing Fog
6:32 PM 30.2 °F 24.3 °F 30.2 °F 100% 29.99 in 0.2 mi East 5.8 mph - N/A Fog Light Freezing Fog
6:52 PM 30.2 °F 24.3 °F 30.2 °F 100% 30.00 in 0.2 mi East 5.8 mph - N/A Fog Light Freezing Fog
7:12 PM 30.2 °F 25.4 °F 30.2 °F 100% 30.01 in 0.2 mi East 4.6 mph - N/A Fog Light Freezing Fog
7:32 PM 30.2 °F 24.3 °F 30.2 °F 100% 30.01 in 0.2 mi East 5.8 mph - N/A Fog Light Freezing Fog
7:52 PM 30.2 °F 25.4 °F 30.2 °F 100% 30.01 in 0.2 mi East 4.6 mph - N/A Snow Light Snow
8:12 PM 30.2 °F 24.3 °F 30.2 °F 100% 30.01 in 0.2 mi East 5.8 mph - N/A Fog Light Freezing Fog
8:32 PM 30.2 °F 24.3 °F 30.2 °F 100% 30.01 in 0.5 mi ESE 5.8 mph - N/A Fog Light Freezing Fog
8:51 PM 30.2 °F 23.4 °F 30.2 °F 100% 30.01 in 0.5 mi East 6.9 mph - N/A Fog Light Freezing Fog
9:12 PM 30.2 °F 25.4 °F 30.2 °F 100% 30.00 in 0.8 mi ESE 4.6 mph - N/A   Overcast
9:32 PM 30.2 °F 25.4 °F 30.2 °F 100% 29.99 in 1.8 mi SE 4.6 mph - N/A   Overcast
9:52 PM 30.2 °F 24.3 °F 30.2 °F 100% 29.99 in 1.8 mi SE 5.8 mph - N/A   Overcast
10:11 PM 30.2 °F 24.3 °F 30.2 °F 100% 30.00 in 1.2 mi SE 5.8 mph - N/A   Overcast
10:32 PM 30.2 °F 26.7 °F 30.2 °F 100% 30.00 in 3.0 mi SE 3.5 mph - N/A   Overcast
10:52 PM 30.2 °F - 30.2 °F 100% 29.99 in 7.0 mi Calm Calm - N/A   Overcast
11:12 PM 32.0 °F 27.5 °F 32.0 °F 100% 29.99 in 10.0 mi SSW 4.6 mph - N/A   Overcast
11:32 PM 32.0 °F 26.4 °F 32.0 °F 100% 29.99 in 7.0 mi SW 5.8 mph - N/A   Overcast
11:52 PM 32.0 °F 25.6 °F 30.2 °F 93% 29.99 in 7.0 mi SW 6.9 mph - N/A   Overcast